THY1248 LTAI-EDDF

Flight info

Callsign THY1248
Flight time 3h 27m
Altitude 34000
Route EKNU1W EKNUD UQ26 DIGBO UL615 VADEN UTEKA BABIT GOTAR ABRUK SIMBA AKINI T161 DEBHI DEBH1B
Aircraft A320/M-V/N

Departure

Time 2026-05-03 20:59
Airport Antalya International Airport (LTAI)

Arrival

Time 2026-05-04 00:26
Airport Frankfurt Main Airport (EDDF)
Time Latitude Longitude Altitude Speed Heading
2026-05-03 20:49 36.89508 30.80565 176 ft 0 kts 186°
2026-05-03 20:52 36.89506 30.80568 176 ft 2 kts 152°
2026-05-03 20:52 36.89507 30.80598 176 ft 7 kts 91°
2026-05-03 20:53 36.89506 30.80645 176 ft 4 kts 91°
2026-05-03 20:53 36.89499 30.80664 176 ft 1 kts 125°
2026-05-03 20:53 36.89485 30.80672 176 ft 4 kts 169°
2026-05-03 20:53 36.89435 30.80669 176 ft 10 kts 185°
2026-05-03 20:54 36.89341 30.80658 175 ft 17 kts 186°
2026-05-03 20:54 36.89031 30.80614 174 ft 28 kts 186°
2026-05-03 20:54 36.88826 30.80584 173 ft 30 kts 186°
2026-05-03 20:55 36.88636 30.80557 172 ft 25 kts 186°
2026-05-03 20:55 36.88474 30.80534 171 ft 21 kts 186°
2026-05-03 20:55 36.88342 30.80516 171 ft 18 kts 186°
2026-05-03 20:55 36.88232 30.80502 170 ft 14 kts 185°
2026-05-03 20:56 36.88147 30.80507 169 ft 11 kts 156°
2026-05-03 20:56 36.88114 30.80568 168 ft 7 kts 99°
2026-05-03 20:56 36.88110 30.80600 168 ft 0 kts 96°
2026-05-03 20:57 36.88110 30.80603 168 ft 5 kts 96°
2026-05-03 20:57 36.88127 30.80708 167 ft 16 kts 50°
2026-05-03 20:57 36.88164 30.80730 168 ft 0 kts
2026-05-03 20:58 36.88204 30.80735 169 ft 33 kts
2026-05-03 20:58 36.88749 30.80806 173 ft 122 kts
2026-05-03 20:58 36.89865 30.80967 219 ft 196 kts
2026-05-03 20:58 36.91360 30.81184 639 ft 233 kts
2026-05-03 20:59 36.92881 30.81075 2182 ft 208 kts 346°
2026-05-03 20:59 36.94190 30.80482 3465 ft 203 kts 340°
2026-05-03 20:59 36.95580 30.79932 4313 ft 205 kts 344°
2026-05-03 20:59 36.96967 30.79516 5400 ft 214 kts 347°
2026-05-03 21:00 36.98491 30.79171 6406 ft 231 kts 350°
2026-05-03 21:00 36.99013 30.79077 6730 ft 237 kts 351°
2026-05-03 21:00 37.01906 30.78691 8504 ft 262 kts 353°
2026-05-03 21:00 37.03744 30.78517 9594 ft 274 kts 354°
2026-05-03 21:01 37.05608 30.78367 10510 ft 289 kts 354°
2026-05-03 21:01 37.07707 30.78214 11109 ft 318 kts 355°
2026-05-03 21:01 37.10031 30.78056 11449 ft 352 kts 355°
2026-05-03 21:01 37.12610 30.77889 11612 ft 389 kts 356°
2026-05-03 21:02 37.15401 30.77717 11667 ft 424 kts 356°
2026-05-03 21:02 37.18450 30.77535 11809 ft 452 kts 356°
2026-05-03 21:02 37.21514 30.77362 13774 ft 429 kts 356°
2026-05-03 21:02 37.24423 30.77206 15736 ft 410 kts 356°
2026-05-03 21:03 37.27223 30.77058 17547 ft 396 kts 356°
2026-05-03 21:03 37.29995 30.76913 18538 ft 401 kts 357°
2026-05-03 21:03 37.32802 30.76765 19434 ft 405 kts 357°
2026-05-03 21:03 37.35622 30.76616 20327 ft 408 kts 358°
2026-05-03 21:04 37.38469 30.76466 21193 ft 411 kts 358°
2026-05-03 21:04 37.41345 30.76314 22038 ft 415 kts 358°
2026-05-03 21:04 37.44242 30.76161 22886 ft 419 kts 359°
2026-05-03 21:04 37.47167 30.76008 23617 ft 422 kts 359°
2026-05-03 21:05 37.50126 30.75860 24165 ft 428 kts 359°
2026-05-03 21:05 37.53128 30.75713 24727 ft 434 kts 359°
2026-05-03 21:05 37.56131 30.75567 25253 ft 440 kts 359°
2026-05-03 21:05 37.59217 30.75417 25779 ft 446 kts 359°
2026-05-03 21:06 37.62336 30.75265 26283 ft 451 kts 359°
2026-05-03 21:06 37.65478 30.75111 26980 ft 452 kts 358°
2026-05-03 21:06 37.68633 30.74955 27644 ft 454 kts 358°
2026-05-03 21:06 37.71794 30.74801 28290 ft 456 kts 358°
2026-05-03 21:07 37.74972 30.74644 28966 ft 457 kts 358°
2026-05-03 21:07 37.78157 30.74487 29628 ft 458 kts 358°
2026-05-03 21:07 37.81357 30.74331 30149 ft 461 kts 358°
2026-05-03 21:07 37.84566 30.74173 30693 ft 462 kts 357°
2026-05-03 21:08 37.87738 30.74014 31252 ft 462 kts 357°
2026-05-03 21:08 37.90951 30.73850 31796 ft 462 kts 357°
2026-05-03 21:08 37.94168 30.73685 32348 ft 462 kts 357°
2026-05-03 21:08 37.97388 30.73519 32889 ft 463 kts 357°
2026-05-03 21:09 38.00616 30.73353 33362 ft 465 kts 357°
2026-05-03 21:09 38.03874 30.73182 33575 ft 473 kts 357°
2026-05-03 21:09 38.10589 30.72828 33704 ft 493 kts 357°
2026-05-03 21:10 38.14058 30.72645 33720 ft 504 kts 357°
2026-05-03 21:10 38.17486 30.72465 33723 ft 478 kts 358°
2026-05-03 21:10 38.20691 30.72296 33726 ft 458 kts 358°
2026-05-03 21:10 38.23852 30.72131 33735 ft 455 kts 358°
2026-05-03 21:11 38.30235 30.71801 33914 ft 464 kts 358°
2026-05-03 21:11 38.33464 30.71639 34325 ft 465 kts 358°
2026-05-03 21:11 38.36699 30.71478 34728 ft 466 kts 358°
2026-05-03 21:12 38.39946 30.71316 35118 ft 467 kts 358°
2026-05-03 21:12 38.43190 30.71155 35450 ft 463 kts 357°
2026-05-03 21:12 38.46402 30.70992 35622 ft 462 kts 357°
2026-05-03 21:12 38.48540 30.70882 35692 ft 465 kts 357°
2026-05-03 21:13 38.51788 30.70714 35882 ft 469 kts 357°
2026-05-03 21:13 38.55055 30.70546 36290 ft 469 kts 357°
2026-05-03 21:13 38.59362 30.70326 36602 ft 466 kts 357°
2026-05-03 21:13 38.62618 30.70159 36696 ft 469 kts 357°
2026-05-03 21:14 38.68072 30.69877 36742 ft 472 kts 357°
2026-05-03 21:14 38.74615 30.69537 36760 ft 469 kts 357°
2026-05-03 21:15 38.81140 30.69204 36764 ft 469 kts 356°
2026-05-03 21:15 38.84335 30.68435 36801 ft 468 kts 340°
2026-05-03 21:15 38.87368 30.66910 36786 ft 469 kts 335°
2026-05-03 21:16 38.93308 30.63405 36772 ft 469 kts 333°
2026-05-03 21:16 38.99158 30.59724 36772 ft 467 kts 333°
2026-05-03 21:17 39.04978 30.55979 36780 ft 467 kts 332°
2026-05-03 21:17 39.10747 30.52235 36784 ft 467 kts 333°
2026-05-03 21:18 39.16544 30.48455 36784 ft 467 kts 333°
2026-05-03 21:18 39.22342 30.44665 36798 ft 467 kts 333°
2026-05-03 21:19 39.28143 30.40868 36806 ft 467 kts 333°
2026-05-03 21:19 39.33786 30.37167 36808 ft 467 kts 333°
2026-05-03 21:20 39.39278 30.33560 36827 ft 467 kts 333°
2026-05-03 21:20 39.45074 30.29753 36826 ft 467 kts 333°
2026-05-03 21:21 39.50912 30.26185 36832 ft 467 kts 336°
2026-05-03 21:21 39.56905 30.22862 36833 ft 468 kts 338°
2026-05-03 21:22 39.62918 30.19613 36836 ft 468 kts 338°
2026-05-03 21:22 39.68904 30.16405 36840 ft 468 kts 338°
2026-05-03 21:23 39.74941 30.13175 36840 ft 469 kts 338°
2026-05-03 21:23 39.80982 30.09941 36847 ft 469 kts 338°
2026-05-03 21:24 39.87016 30.06710 36876 ft 468 kts 338°
2026-05-03 21:24 39.93053 30.03474 36882 ft 469 kts 338°
2026-05-03 21:25 39.99077 30.00223 36886 ft 469 kts 338°
2026-05-03 21:25 40.05115 29.96952 36898 ft 469 kts 338°
2026-05-03 21:26 40.11120 29.93696 36909 ft 470 kts 338°
2026-05-03 21:26 40.17163 29.90413 36902 ft 470 kts 338°
2026-05-03 21:27 40.23207 29.87128 36911 ft 469 kts 338°
2026-05-03 21:27 40.29231 29.83851 36911 ft 468 kts 338°
2026-05-03 21:28 40.35212 29.80589 36911 ft 469 kts 338°
2026-05-03 21:28 40.41258 29.77283 36915 ft 472 kts 338°
2026-05-03 21:29 40.47329 29.73958 36926 ft 473 kts 338°
2026-05-03 21:29 40.53398 29.70635 36926 ft 471 kts 338°
2026-05-03 21:30 40.59462 29.67303 36945 ft 472 kts 338°
2026-05-03 21:30 40.65314 29.63572 36954 ft 471 kts 327°
2026-05-03 21:31 40.70646 29.58541 36953 ft 472 kts 323°
2026-05-03 21:31 40.75856 29.53246 36956 ft 472 kts 322°
2026-05-03 21:32 40.81005 29.47882 36964 ft 471 kts 322°
2026-05-03 21:32 40.86133 29.42493 36965 ft 470 kts 321°
2026-05-03 21:33 40.91242 29.37094 36967 ft 470 kts 321°
2026-05-03 21:33 40.96347 29.31683 36965 ft 471 kts 321°
2026-05-03 21:34 41.01429 29.26283 36965 ft 471 kts 321°
2026-05-03 21:34 41.06545 29.20839 36968 ft 471 kts 321°
2026-05-03 21:35 41.11456 29.15125 36981 ft 471 kts 310°
2026-05-03 21:35 41.15429 29.08190 36983 ft 472 kts 305°
2026-05-03 21:36 41.19177 29.01028 36987 ft 471 kts 304°
2026-05-03 21:36 41.22842 28.93823 36989 ft 471 kts 303°
2026-05-03 21:37 41.26457 28.86628 36991 ft 471 kts 303°
2026-05-03 21:37 41.30089 28.79358 36990 ft 471 kts 303°
2026-05-03 21:38 41.33711 28.72079 36987 ft 470 kts 303°
2026-05-03 21:38 41.37296 28.64853 36992 ft 469 kts 303°
2026-05-03 21:39 41.40901 28.57574 36997 ft 469 kts 303°
2026-05-03 21:39 41.44494 28.50299 37007 ft 469 kts 303°
2026-05-03 21:40 41.48067 28.43054 37014 ft 468 kts 303°
2026-05-03 21:40 41.51636 28.35773 37025 ft 468 kts 303°
2026-05-03 21:41 41.55175 28.28531 37027 ft 467 kts 303°
2026-05-03 21:41 41.58725 28.21255 37028 ft 466 kts 303°
2026-05-03 21:42 41.62240 28.14033 37030 ft 467 kts 303°
2026-05-03 21:42 41.65785 28.06733 37038 ft 466 kts 303°
2026-05-03 21:43 41.69313 27.99454 37039 ft 466 kts 303°
2026-05-03 21:43 41.72821 27.92203 37045 ft 466 kts 303°
2026-05-03 21:44 41.76351 27.84892 37048 ft 467 kts 303°
2026-05-03 21:44 41.79885 27.77556 37049 ft 468 kts 303°
2026-05-03 21:45 41.83392 27.70256 37053 ft 468 kts 303°
2026-05-03 21:45 41.86923 27.62888 37061 ft 468 kts 303°
2026-05-03 21:46 41.90418 27.55584 37064 ft 467 kts 303°
2026-05-03 21:46 41.93933 27.48218 37071 ft 467 kts 303°
2026-05-03 21:47 41.97432 27.40861 37079 ft 466 kts 303°
2026-05-03 21:47 42.00906 27.33544 37081 ft 467 kts 303°
2026-05-03 21:48 42.04392 27.26182 37081 ft 465 kts 302°
2026-05-03 21:48 42.07700 27.18688 37091 ft 465 kts 301°
2026-05-03 21:49 42.10876 27.11150 37096 ft 464 kts 300°
2026-05-03 21:49 42.14040 27.03534 37098 ft 463 kts 300°
2026-05-03 21:50 42.17161 26.95982 37104 ft 464 kts 300°
2026-05-03 21:50 42.20307 26.88345 37109 ft 466 kts 300°
2026-05-03 21:51 42.23436 26.80729 37117 ft 466 kts 300°
2026-05-03 21:51 42.26573 26.73073 37119 ft 465 kts 300°
2026-05-03 21:52 42.29705 26.65407 37119 ft 465 kts 300°
2026-05-03 21:52 42.32805 26.57797 37123 ft 464 kts 300°
2026-05-03 21:53 42.35918 26.50138 37129 ft 463 kts 300°
2026-05-03 21:53 42.38999 26.42538 37131 ft 463 kts 300°
2026-05-03 21:54 42.42093 26.34881 37131 ft 462 kts 300°
2026-05-03 21:54 42.45150 26.27295 37140 ft 460 kts 300°
2026-05-03 21:55 42.48213 26.19674 37148 ft 459 kts 300°
2026-05-03 21:55 42.51247 26.12106 37162 ft 459 kts 300°
2026-05-03 21:56 42.54298 26.04484 37166 ft 459 kts 300°
2026-05-03 21:56 42.57346 25.96845 37184 ft 459 kts 300°
2026-05-03 21:57 42.60364 25.89265 37204 ft 459 kts 300°
2026-05-03 21:57 42.63403 25.81609 37204 ft 459 kts 300°
2026-05-03 21:58 42.66432 25.73954 37223 ft 459 kts 300°
2026-05-03 21:58 42.69436 25.66340 37238 ft 459 kts 300°
2026-05-03 21:59 42.72458 25.58663 37249 ft 459 kts 300°
2026-05-03 21:59 42.75452 25.51033 37266 ft 460 kts 300°
2026-05-03 22:00 42.78471 25.43329 37275 ft 460 kts 300°
2026-05-03 22:00 42.81475 25.35639 37268 ft 458 kts 300°
2026-05-03 22:01 42.84448 25.28006 37293 ft 459 kts 300°
2026-05-03 22:01 42.86938 25.21599 37303 ft 460 kts 300°
2026-05-03 22:02 42.90415 25.12630 37313 ft 458 kts 300°
2026-05-03 22:02 42.92911 25.06173 37324 ft 458 kts 300°
2026-05-03 22:03 42.95862 24.98521 37336 ft 459 kts 300°
2026-05-03 22:03 42.98837 24.90783 37347 ft 458 kts 300°
2026-05-03 22:04 43.01777 24.83118 37352 ft 457 kts 300°
2026-05-03 22:04 43.04730 24.75395 37369 ft 458 kts 300°
2026-05-03 22:05 43.07681 24.67657 37380 ft 458 kts 300°
2026-05-03 22:05 43.10601 24.59978 37386 ft 457 kts 300°
2026-05-03 22:06 43.13534 24.52242 37391 ft 456 kts 300°
2026-05-03 22:06 43.16461 24.44504 37390 ft 457 kts 301°
2026-05-03 22:07 43.19363 24.36805 37388 ft 457 kts 301°
2026-05-03 22:07 43.22275 24.29064 37383 ft 456 kts 301°
2026-05-03 22:08 43.25162 24.21368 37381 ft 456 kts 301°
2026-05-03 22:08 43.28066 24.13607 37382 ft 455 kts 301°
2026-05-03 22:09 43.30955 24.05863 37383 ft 454 kts 301°
2026-05-03 22:10 43.35240 23.94335 37382 ft 453 kts 301°
2026-05-03 22:10 43.38103 23.86606 37379 ft 453 kts 301°
2026-05-03 22:11 43.40957 23.78880 37368 ft 452 kts 301°
2026-05-03 22:11 43.43795 23.71177 37366 ft 451 kts 301°
2026-05-03 22:12 43.46624 23.63480 37357 ft 451 kts 301°
2026-05-03 22:12 43.49433 23.55815 37348 ft 450 kts 301°
2026-05-03 22:13 43.52243 23.48125 37335 ft 449 kts 301°
2026-05-03 22:13 43.55055 23.40411 37320 ft 450 kts 301°
2026-05-03 22:14 43.57850 23.32726 37309 ft 451 kts 302°
2026-05-03 22:14 43.60651 23.24994 37295 ft 449 kts 302°
2026-05-03 22:15 43.63442 23.17273 37289 ft 449 kts 302°
2026-05-03 22:15 43.66230 23.09544 37272 ft 450 kts 302°
2026-05-03 22:16 43.69016 23.01796 37265 ft 450 kts 302°
2026-05-03 22:16 43.71786 22.94067 37253 ft 449 kts 302°
2026-05-03 22:17 43.74560 22.86309 37244 ft 449 kts 302°
2026-05-03 22:17 43.77309 22.78605 37234 ft 449 kts 302°
2026-05-03 22:18 43.80064 22.70853 37221 ft 448 kts 302°
2026-05-03 22:18 43.82812 22.63102 37211 ft 448 kts 302°
2026-05-03 22:19 43.85556 22.55340 37202 ft 448 kts 302°
2026-05-03 22:19 43.88290 22.47583 37192 ft 447 kts 301°
2026-05-03 22:20 43.91327 22.40204 37192 ft 439 kts 312°
2026-05-03 22:20 43.95098 22.33564 37180 ft 438 kts 314°
2026-05-03 22:21 43.98989 22.27052 37178 ft 437 kts 315°
2026-05-03 22:21 44.02897 22.20601 37185 ft 436 kts 315°
2026-05-03 22:22 44.06820 22.14157 37182 ft 437 kts 315°
2026-05-03 22:22 44.10748 22.07713 37179 ft 436 kts 315°
2026-05-03 22:23 44.14671 22.01273 37184 ft 436 kts 315°
2026-05-03 22:23 44.18568 21.94870 37182 ft 437 kts 315°
2026-05-03 22:24 44.22493 21.88411 37190 ft 435 kts 315°
2026-05-03 22:24 44.26403 21.81964 37191 ft 435 kts 315°
2026-05-03 22:25 44.30315 21.75503 37177 ft 436 kts 315°
2026-05-03 22:25 44.34226 21.69031 37186 ft 436 kts 315°
2026-05-03 22:26 44.38131 21.62554 37182 ft 435 kts 315°
2026-05-03 22:26 44.42003 21.56120 37183 ft 435 kts 315°
2026-05-03 22:27 44.45896 21.49635 37173 ft 434 kts 315°
2026-05-03 22:27 44.49783 21.43147 37172 ft 434 kts 315°
2026-05-03 22:28 44.53633 21.36707 37172 ft 433 kts 315°
2026-05-03 22:28 44.57499 21.30223 37164 ft 433 kts 315°
2026-05-03 22:29 44.61356 21.23743 37164 ft 433 kts 315°
2026-05-03 22:29 44.65215 21.17247 37163 ft 433 kts 315°
2026-05-03 22:30 44.69067 21.10744 37160 ft 432 kts 315°
2026-05-03 22:30 44.72911 21.04243 37160 ft 432 kts 315°
2026-05-03 22:31 44.76736 20.97763 37158 ft 433 kts 315°
2026-05-03 22:31 44.80576 20.91240 37157 ft 432 kts 315°
2026-05-03 22:32 44.84407 20.84716 37160 ft 432 kts 315°
2026-05-03 22:32 44.88236 20.78182 37164 ft 432 kts 315°
2026-05-03 22:33 44.92066 20.71631 37170 ft 433 kts 315°
2026-05-03 22:33 44.95886 20.65080 37172 ft 432 kts 315°
2026-05-03 22:34 44.99668 20.58578 37178 ft 431 kts 315°
2026-05-03 22:34 45.03504 20.51974 37172 ft 432 kts 315°
2026-05-03 22:35 45.07289 20.45439 37181 ft 431 kts 314°
2026-05-03 22:35 45.11085 20.38868 37176 ft 431 kts 314°
2026-05-03 22:36 45.14878 20.32286 37179 ft 431 kts 314°
2026-05-03 22:36 45.18670 20.25695 37177 ft 431 kts 314°
2026-05-03 22:37 45.22457 20.19093 37173 ft 431 kts 314°
2026-05-03 22:37 45.26208 20.12540 37172 ft 430 kts 314°
2026-05-03 22:38 45.29987 20.05924 37170 ft 431 kts 314°
2026-05-03 22:38 45.33767 19.99293 37170 ft 431 kts 314°
2026-05-03 22:39 45.37536 19.92663 37166 ft 431 kts 314°
2026-05-03 22:39 45.41297 19.86032 37164 ft 431 kts 314°
2026-05-03 22:40 45.45065 19.79371 37165 ft 432 kts 314°
2026-05-03 22:40 45.48829 19.72702 37165 ft 431 kts 314°
2026-05-03 22:41 45.52582 19.66039 37163 ft 430 kts 314°
2026-05-03 22:41 45.56301 19.59419 37160 ft 431 kts 314°
2026-05-03 22:42 45.60049 19.52730 37164 ft 431 kts 314°
2026-05-03 22:42 45.63790 19.46040 37159 ft 430 kts 314°
2026-05-03 22:43 45.67518 19.39356 37161 ft 430 kts 313°
2026-05-03 22:43 45.71241 19.32665 37160 ft 430 kts 313°
2026-05-03 22:44 45.74966 19.25956 37158 ft 430 kts 313°
2026-05-03 22:44 45.78676 19.19254 37153 ft 429 kts 313°
2026-05-03 22:45 45.82361 19.12580 37151 ft 429 kts 313°
2026-05-03 22:45 45.86071 19.05847 37150 ft 430 kts 313°
2026-05-03 22:46 45.89772 18.99107 37151 ft 429 kts 313°
2026-05-03 22:46 45.93213 18.92153 37149 ft 431 kts 307°
2026-05-03 22:47 45.96393 18.84826 37148 ft 433 kts 306°
2026-05-03 22:47 45.99511 18.77408 37145 ft 433 kts 306°
2026-05-03 22:48 46.02589 18.69990 37141 ft 432 kts 306°
2026-05-03 22:48 46.05656 18.62550 37142 ft 432 kts 305°
2026-05-03 22:49 46.08717 18.55093 37144 ft 432 kts 305°
2026-05-03 22:49 46.11743 18.47689 37143 ft 431 kts 305°
2026-05-03 22:50 46.14773 18.40248 37147 ft 430 kts 305°
2026-05-03 22:50 46.17803 18.32788 37144 ft 431 kts 305°
2026-05-03 22:51 46.20832 18.25310 37144 ft 431 kts 305°
2026-05-03 22:51 46.23851 18.17832 37135 ft 430 kts 305°
2026-05-03 22:52 46.26351 18.11619 37132 ft 430 kts 305°
2026-05-03 22:52 46.29843 18.02921 37124 ft 431 kts 305°
2026-05-03 22:53 46.32847 17.95415 37123 ft 431 kts 304°
2026-05-03 22:53 46.35361 17.89123 37123 ft 431 kts 304°
2026-05-03 22:54 46.38342 17.81638 37120 ft 432 kts 304°
2026-05-03 22:54 46.41337 17.74095 37117 ft 432 kts 304°
2026-05-03 22:55 46.44330 17.66538 37116 ft 432 kts 304°
2026-05-03 22:55 46.47317 17.58975 37114 ft 432 kts 304°
2026-05-03 22:56 46.50285 17.51442 37115 ft 432 kts 304°
2026-05-03 22:56 46.53264 17.43857 37116 ft 432 kts 304°
2026-05-03 22:57 46.56237 17.36263 37121 ft 432 kts 304°
2026-05-03 22:57 46.59202 17.28671 37124 ft 432 kts 304°
2026-05-03 22:58 46.62168 17.21059 37128 ft 433 kts 303°
2026-05-03 22:58 46.65128 17.13437 37126 ft 432 kts 303°
2026-05-03 22:59 46.68082 17.05809 37130 ft 432 kts 303°
2026-05-03 22:59 46.71008 16.98232 37126 ft 432 kts 303°
2026-05-03 23:00 46.73952 16.90583 37123 ft 432 kts 303°
2026-05-03 23:00 46.76890 16.82932 37110 ft 431 kts 303°
2026-05-03 23:01 46.79819 16.75289 37100 ft 431 kts 303°
2026-05-03 23:01 46.82738 16.67644 37086 ft 431 kts 303°
2026-05-03 23:02 46.85677 16.59933 37088 ft 443 kts 303°
2026-05-03 23:02 46.87195 16.55950 37089 ft 454 kts 303°
2026-05-03 23:02 46.88725 16.51927 37082 ft 464 kts 302°
2026-05-03 23:03 46.91899 16.43549 37077 ft 473 kts 302°
2026-05-03 23:03 46.95070 16.35116 37074 ft 473 kts 302°
2026-05-03 23:04 46.98222 16.26670 37072 ft 473 kts 301°
2026-05-03 23:04 47.01178 16.18069 37070 ft 473 kts 299°
2026-05-03 23:05 47.04035 16.09369 37068 ft 473 kts 298°
2026-05-03 23:05 47.06858 16.00642 37071 ft 473 kts 298°
2026-05-03 23:06 47.09665 15.91902 37064 ft 473 kts 298°
2026-05-03 23:06 47.12447 15.83204 37066 ft 473 kts 298°
2026-05-03 23:07 47.15232 15.74458 37072 ft 473 kts 298°
2026-05-03 23:07 47.18009 15.65704 37070 ft 473 kts 297°
2026-05-03 23:08 47.20786 15.56923 37076 ft 473 kts 297°
2026-05-03 23:08 47.23551 15.48144 37075 ft 473 kts 297°
2026-05-03 23:09 47.26312 15.39347 37085 ft 473 kts 297°
2026-05-03 23:09 47.29060 15.30556 37072 ft 473 kts 297°
2026-05-03 23:10 47.31809 15.21736 37067 ft 473 kts 297°
2026-05-03 23:10 47.34546 15.12912 37075 ft 473 kts 297°
2026-05-03 23:11 47.37310 15.04165 37069 ft 472 kts 300°
2026-05-03 23:11 47.40648 14.95823 37068 ft 471 kts 304°
2026-05-03 23:12 47.44154 14.87648 37056 ft 471 kts 304°
2026-05-03 23:12 47.47710 14.79476 37054 ft 473 kts 304°
2026-05-03 23:13 47.51272 14.71306 37051 ft 472 kts 304°
2026-05-03 23:13 47.54828 14.63142 37033 ft 472 kts 304°
2026-05-03 23:14 47.58360 14.55008 37020 ft 472 kts 304°
2026-05-03 23:14 47.61932 14.46753 37003 ft 472 kts 304°
2026-05-03 23:15 47.65457 14.38583 37005 ft 473 kts 304°
2026-05-03 23:15 47.69000 14.30352 37006 ft 472 kts 304°
2026-05-03 23:16 47.72533 14.22124 37000 ft 472 kts 303°
2026-05-03 23:16 47.76053 14.13890 36987 ft 472 kts 304°
2026-05-03 23:17 47.79577 14.05632 36987 ft 472 kts 303°
2026-05-03 23:17 47.83064 13.97430 36984 ft 472 kts 303°
2026-05-03 23:18 47.86567 13.89166 36982 ft 472 kts 303°
2026-05-03 23:18 47.90065 13.80895 36972 ft 472 kts 303°
2026-05-03 23:19 47.93555 13.72612 36977 ft 471 kts 303°
2026-05-03 23:19 47.97039 13.64319 36980 ft 471 kts 303°
2026-05-03 23:20 48.00515 13.56016 36978 ft 469 kts 303°
2026-05-03 23:20 48.02194 13.51993 36975 ft 444 kts 303°
2026-05-03 23:20 48.03787 13.48165 36973 ft 425 kts 303°
2026-05-03 23:21 48.06871 13.40750 36978 ft 425 kts 303°
2026-05-03 23:21 48.10015 13.33180 36978 ft 431 kts 303°
2026-05-03 23:22 48.14742 13.21754 36977 ft 429 kts 302°
2026-05-03 23:22 48.17877 13.14145 36977 ft 430 kts 302°
2026-05-03 23:23 48.21023 13.06502 36980 ft 430 kts 304°
2026-05-03 23:23 48.24656 12.99393 36983 ft 429 kts 310°
2026-05-03 23:24 48.28551 12.92574 36998 ft 434 kts 309°
2026-05-03 23:24 48.32566 12.85689 36987 ft 439 kts 309°
2026-05-03 23:25 48.36434 12.79060 36987 ft 435 kts 309°
2026-05-03 23:25 48.40428 12.72216 36988 ft 436 kts 309°
2026-05-03 23:26 48.44444 12.65326 36985 ft 438 kts 309°
2026-05-03 23:26 48.48454 12.58438 36989 ft 437 kts 309°
2026-05-03 23:27 48.52460 12.51546 36798 ft 437 kts 309°
2026-05-03 23:27 48.54459 12.48100 36230 ft 436 kts 309°
2026-05-03 23:27 48.56473 12.44624 35609 ft 443 kts 309°
2026-05-03 23:28 48.58510 12.41103 35284 ft 444 kts 308°
2026-05-03 23:28 48.60529 12.37611 35122 ft 439 kts 308°
2026-05-03 23:28 48.64532 12.30673 35026 ft 439 kts 308°
2026-05-03 23:29 48.68557 12.23667 35008 ft 443 kts 308°
2026-05-03 23:29 48.72583 12.16604 35007 ft 441 kts 304°
2026-05-03 23:30 48.74040 12.12586 35033 ft 434 kts 287°
2026-05-03 23:30 48.74899 12.08215 35015 ft 433 kts 282°
2026-05-03 23:30 48.76214 11.99315 34658 ft 431 kts 279°
2026-05-03 23:31 48.76772 11.94917 34302 ft 425 kts 278°
2026-05-03 23:31 48.77289 11.90605 34142 ft 406 kts 277°
2026-05-03 23:31 48.77764 11.86487 34075 ft 388 kts 277°
2026-05-03 23:31 48.78209 11.82483 34046 ft 383 kts 276°
2026-05-03 23:32 48.79064 11.74462 34028 ft 388 kts 276°
2026-05-03 23:32 48.79909 11.66368 34025 ft 388 kts 276°
2026-05-03 23:33 48.80748 11.58302 34025 ft 387 kts 276°
2026-05-03 23:33 48.81583 11.50225 34029 ft 388 kts 276°
2026-05-03 23:34 48.82411 11.42183 34023 ft 387 kts 276°
2026-05-03 23:34 48.83237 11.34107 34026 ft 387 kts 275°
2026-05-03 23:35 48.84195 11.26054 34049 ft 391 kts 289°
2026-05-03 23:35 48.85563 11.22437 34051 ft 400 kts 302°
2026-05-03 23:35 48.87302 11.19104 34032 ft 404 kts 307°
2026-05-03 23:36 48.91127 11.12851 34023 ft 404 kts 311°
2026-05-03 23:36 48.95193 11.06925 34023 ft 406 kts 313°
2026-05-03 23:37 48.99233 11.01314 33518 ft 370 kts 313°
2026-05-03 23:37 49.01096 10.98753 32732 ft 353 kts 313°
2026-05-03 23:37 49.02877 10.96291 31952 ft 339 kts 313°
2026-05-03 23:38 49.04588 10.93907 31212 ft 328 kts 312°
2026-05-03 23:38 49.06243 10.91591 30496 ft 318 kts 312°
2026-05-03 23:38 49.07824 10.89372 29735 ft 308 kts 312°
2026-05-03 23:38 49.09373 10.87187 28820 ft 299 kts 312°
2026-05-03 23:39 49.10887 10.85044 28011 ft 294 kts 311°
2026-05-03 23:39 49.12369 10.82938 27296 ft 288 kts 311°
2026-05-03 23:39 49.13818 10.80874 26607 ft 282 kts 311°
2026-05-03 23:39 49.15238 10.78848 25950 ft 277 kts 311°
2026-05-03 23:40 49.16170 10.77517 25524 ft 274 kts 311°
2026-05-03 23:40 49.17550 10.75541 24902 ft 270 kts 311°
2026-05-03 23:40 49.18880 10.73590 24499 ft 259 kts 311°
2026-05-03 23:40 49.20142 10.71706 24265 ft 249 kts 310°
2026-05-03 23:41 49.21362 10.69848 24161 ft 248 kts 309°
2026-05-03 23:41 49.22578 10.67965 24107 ft 249 kts 309°
2026-05-03 23:41 49.23804 10.66043 23823 ft 255 kts 309°
2026-05-03 23:41 49.25035 10.64106 23351 ft 253 kts 309°
2026-05-03 23:42 49.26254 10.62180 22701 ft 252 kts 309°
2026-05-03 23:42 49.27461 10.60271 22346 ft 246 kts 309°
2026-05-03 23:42 49.28653 10.58389 21724 ft 247 kts 309°
2026-05-03 23:42 49.29846 10.56500 21086 ft 246 kts 309°
2026-05-03 23:43 49.31020 10.54641 20489 ft 244 kts 309°
2026-05-03 23:43 49.32198 10.52776 19893 ft 243 kts 310°
2026-05-03 23:43 49.33370 10.50919 19317 ft 241 kts 309°
2026-05-03 23:43 49.34527 10.49071 18753 ft 239 kts 308°
2026-05-03 23:44 49.35609 10.47153 18187 ft 236 kts 305°
2026-05-03 23:44 49.36629 10.45189 17552 ft 234 kts 303°
2026-05-03 23:44 49.37610 10.43205 16951 ft 232 kts 302°
2026-05-03 23:44 49.38561 10.41213 16368 ft 230 kts 301°
2026-05-03 23:45 49.39487 10.39227 15886 ft 226 kts 301°
2026-05-03 23:45 49.40373 10.37309 15971 ft 220 kts 300°
2026-05-03 23:45 49.41261 10.35357 16013 ft 225 kts 300°
2026-05-03 23:45 49.42156 10.33381 16029 ft 224 kts 300°
2026-05-03 23:46 49.43047 10.31413 16037 ft 224 kts 300°
2026-05-03 23:46 49.43937 10.29448 16042 ft 224 kts 300°
2026-05-03 23:46 49.44829 10.27479 16042 ft 225 kts 300°
2026-05-03 23:46 49.45710 10.25536 16042 ft 224 kts 300°
2026-05-03 23:47 49.46600 10.23575 16040 ft 224 kts 300°
2026-05-03 23:47 49.47493 10.21605 16039 ft 224 kts 300°
2026-05-03 23:47 49.48386 10.19637 16039 ft 224 kts 300°
2026-05-03 23:47 49.49274 10.17677 16039 ft 224 kts 300°
2026-05-03 23:48 49.50164 10.15711 16044 ft 224 kts 300°
2026-05-03 23:48 49.51054 10.13745 16042 ft 224 kts 300°
2026-05-03 23:48 49.51945 10.11773 16042 ft 224 kts 300°
2026-05-03 23:48 49.52976 10.09970 16043 ft 228 kts 314°
2026-05-03 23:49 49.54253 10.08487 16043 ft 231 kts 321°
2026-05-03 23:49 49.55619 10.07164 16044 ft 233 kts 324°
2026-05-03 23:49 49.57027 10.05937 16042 ft 233 kts 327°
2026-05-03 23:49 49.58459 10.04772 16040 ft 233 kts 328°
2026-05-03 23:50 49.59912 10.03639 16039 ft 234 kts 328°
2026-05-03 23:50 49.61358 10.02543 16039 ft 234 kts 329°
2026-05-03 23:50 49.62827 10.01440 16036 ft 234 kts 329°
2026-05-03 23:50 49.64294 10.00343 16037 ft 234 kts 329°
2026-05-03 23:51 49.65757 9.99247 16033 ft 234 kts 329°
2026-05-03 23:51 49.67219 9.98148 16029 ft 234 kts 329°
2026-05-03 23:51 49.68681 9.97043 16029 ft 234 kts 329°
2026-05-03 23:51 49.70142 9.95925 16031 ft 233 kts 328°
2026-05-03 23:52 49.71581 9.94770 16026 ft 233 kts 327°
2026-05-03 23:52 49.73009 9.93581 16024 ft 233 kts 326°
2026-05-03 23:52 49.74407 9.92385 16024 ft 233 kts 325°
2026-05-03 23:52 49.75819 9.91157 16024 ft 233 kts 325°
2026-05-03 23:53 49.77227 9.89920 16024 ft 232 kts 325°
2026-05-03 23:53 49.78628 9.88681 16025 ft 232 kts 324°
2026-05-03 23:53 49.80031 9.87438 16021 ft 232 kts 324°
2026-05-03 23:53 49.81432 9.86197 16016 ft 232 kts 324°
2026-05-03 23:54 49.82830 9.84954 16018 ft 232 kts 324°
2026-05-03 23:54 49.84231 9.83709 16019 ft 232 kts 324°
2026-05-03 23:54 49.85635 9.82460 15893 ft 234 kts 324°
2026-05-03 23:54 49.87050 9.81203 15488 ft 234 kts 324°
2026-05-03 23:55 49.88469 9.79973 14995 ft 233 kts 325°
2026-05-03 23:55 49.89872 9.78784 14461 ft 232 kts 325°
2026-05-03 23:55 49.91296 9.77598 13933 ft 231 kts 326°
2026-05-03 23:55 49.92711 9.76430 13442 ft 229 kts 326°
2026-05-03 23:56 49.94103 9.75290 13202 ft 223 kts 325°
2026-05-03 23:56 49.95477 9.74164 13098 ft 223 kts 325°
2026-05-03 23:56 49.96848 9.73035 13057 ft 223 kts 325°
2026-05-03 23:56 49.98215 9.71901 13028 ft 222 kts 324°
2026-05-03 23:57 49.99523 9.70656 12697 ft 223 kts 320°
2026-05-03 23:57 50.00797 9.69304 12185 ft 221 kts 317°
2026-05-03 23:57 50.02035 9.67910 11641 ft 218 kts 316°
2026-05-03 23:57 50.03244 9.66498 11309 ft 214 kts 315°
2026-05-03 23:58 50.04415 9.65100 11161 ft 210 kts 314°
2026-05-03 23:58 50.05548 9.63705 11078 ft 211 kts 313°
2026-05-03 23:58 50.06703 9.62287 11055 ft 211 kts 314°
2026-05-03 23:58 50.07850 9.60877 11032 ft 206 kts 313°
2026-05-03 23:59 50.08932 9.59565 11014 ft 188 kts 313°
2026-05-03 23:59 50.09943 9.58337 11015 ft 183 kts 312°
2026-05-03 23:59 50.10943 9.57107 11024 ft 183 kts 312°
2026-05-03 23:59 50.11936 9.55877 11018 ft 181 kts 312°
2026-05-04 00:00 50.12924 9.54649 11019 ft 182 kts 312°
2026-05-04 00:00 50.13919 9.53415 11018 ft 182 kts 312°
2026-05-04 00:00 50.14911 9.52191 11017 ft 181 kts 313°
2026-05-04 00:00 50.15905 9.50968 11023 ft 182 kts 312°
2026-05-04 00:01 50.16884 9.49764 11017 ft 181 kts 312°
2026-05-04 00:01 50.17885 9.48531 11029 ft 181 kts 312°
2026-05-04 00:01 50.18865 9.47324 11028 ft 182 kts 312°
2026-05-04 00:01 50.19884 9.46051 11027 ft 205 kts 312°
2026-05-04 00:02 50.21108 9.44469 11025 ft 252 kts 314°
2026-05-04 00:02 50.22580 9.42582 11024 ft 294 kts 315°
2026-05-04 00:02 50.24272 9.40449 11023 ft 329 kts 316°
2026-05-04 00:02 50.26148 9.38124 11014 ft 357 kts 317°
2026-05-04 00:03 50.28171 9.35646 11012 ft 379 kts 318°
2026-05-04 00:03 50.30299 9.33048 11006 ft 396 kts 318°
2026-05-04 00:03 50.32509 9.30361 11009 ft 408 kts 318°
2026-05-04 00:03 50.34663 9.27405 11010 ft 415 kts 311°
2026-05-04 00:04 50.36623 9.24049 11004 ft 419 kts 306°
2026-05-04 00:04 50.38205 9.20308 10977 ft 418 kts 291°
2026-05-04 00:04 50.38778 9.15895 10969 ft 414 kts 269°
2026-05-04 00:04 50.38283 9.11482 10976 ft 413 kts 253°
2026-05-04 00:05 50.37392 9.07200 11006 ft 413 kts 249°
2026-05-04 00:05 50.36387 9.02971 11007 ft 414 kts 248°
2026-05-04 00:05 50.35338 8.98767 11016 ft 415 kts 247°
2026-05-04 00:05 50.34321 8.94749 11017 ft 364 kts 247°
2026-05-04 00:06 50.33466 8.91355 11012 ft 310 kts 247°
2026-05-04 00:06 50.32735 8.88428 11014 ft 269 kts 247°
2026-05-04 00:06 50.32101 8.85859 11012 ft 238 kts 246°
2026-05-04 00:06 50.31165 8.84018 11023 ft 214 kts 209°
2026-05-04 00:07 50.29671 8.83687 11023 ft 222 kts 181°
2026-05-04 00:07 50.28138 8.84036 11016 ft 223 kts 173°
2026-05-04 00:07 50.26630 8.84644 11011 ft 225 kts 169°
2026-05-04 00:07 50.25136 8.85406 11013 ft 227 kts 166°
2026-05-04 00:08 50.23659 8.86262 11007 ft 227 kts 163°
2026-05-04 00:08 50.22406 8.87795 11018 ft 243 kts 127°
2026-05-04 00:08 50.22034 8.90417 11025 ft 258 kts 86°
2026-05-04 00:08 50.22561 8.93112 11021 ft 261 kts 69°
2026-05-04 00:09 50.23273 8.95767 11015 ft 279 kts 68°
2026-05-04 00:09 50.24090 8.98765 11013 ft 320 kts 68°
2026-05-04 00:09 50.24974 9.02102 11011 ft 353 kts 69°
2026-05-04 00:09 50.25911 9.05818 11008 ft 381 kts 70°
2026-05-04 00:10 50.26881 9.09853 11007 ft 394 kts 71°
2026-05-04 00:10 50.27756 9.13569 11009 ft 346 kts 71°
2026-05-04 00:10 50.28538 9.16919 11011 ft 318 kts 72°
2026-05-04 00:10 50.29319 9.20355 11012 ft 351 kts 72°
2026-05-04 00:11 50.30169 9.24110 11012 ft 379 kts 72°
2026-05-04 00:11 50.31080 9.28114 11008 ft 401 kts 72°
2026-05-04 00:11 50.32035 9.32315 10917 ft 419 kts 72°
2026-05-04 00:11 50.32976 9.36431 10221 ft 384 kts 72°
2026-05-04 00:12 50.33830 9.40173 9593 ft 356 kts 72°
2026-05-04 00:12 50.34551 9.43695 9264 ft 323 kts 83°
2026-05-04 00:12 50.34411 9.46937 9119 ft 274 kts 115°
2026-05-04 00:12 50.33454 9.48985 9069 ft 208 kts 156°
2026-05-04 00:13 50.32164 9.49318 9052 ft 185 kts 203°
2026-05-04 00:13 50.31239 9.48013 9047 ft 183 kts 235°
2026-05-04 00:13 50.30510 9.46397 9029 ft 181 kts 232°
2026-05-04 00:13 50.29657 9.44953 9016 ft 182 kts 223°
2026-05-04 00:14 50.28654 9.43724 9013 ft 184 kts 216°
2026-05-04 00:14 50.27576 9.42695 9009 ft 187 kts 212°
2026-05-04 00:14 50.26340 9.41639 9026 ft 205 kts 217°
2026-05-04 00:14 50.25456 9.39956 9032 ft 201 kts 236°
2026-05-04 00:15 50.24738 9.38073 9017 ft 202 kts 239°
2026-05-04 00:15 50.24080 9.36117 8934 ft 207 kts 242°
2026-05-04 00:15 50.23471 9.34117 8830 ft 201 kts 244°
2026-05-04 00:15 50.22902 9.32108 8397 ft 206 kts 245°
2026-05-04 00:16 50.22351 9.30083 8184 ft 198 kts 245°
2026-05-04 00:16 50.21832 9.28114 8100 ft 199 kts 246°
2026-05-04 00:16 50.21308 9.26100 8063 ft 201 kts 246°
2026-05-04 00:16 50.20789 9.24082 8039 ft 200 kts 246°
2026-05-04 00:17 50.20272 9.22059 7890 ft 201 kts 246°
2026-05-04 00:17 50.19753 9.20033 7500 ft 201 kts 246°
2026-05-04 00:17 50.19236 9.18017 7232 ft 198 kts 247°
2026-05-04 00:17 50.18723 9.16027 7114 ft 198 kts 247°
2026-05-04 00:18 50.18208 9.14029 7064 ft 199 kts 247°
2026-05-04 00:18 50.17689 9.12016 6827 ft 199 kts 247°
2026-05-04 00:18 50.17171 9.10006 6421 ft 200 kts 247°
2026-05-04 00:18 50.16656 9.08018 6194 ft 196 kts 247°
2026-05-04 00:19 50.16150 9.06067 6095 ft 197 kts 248°
2026-05-04 00:19 50.15635 9.04077 5963 ft 197 kts 248°
2026-05-04 00:19 50.15137 9.02162 5610 ft 186 kts 248°
2026-05-04 00:19 50.14658 9.00325 5275 ft 180 kts 248°
2026-05-04 00:20 50.14187 8.98515 5102 ft 181 kts 248°
2026-05-04 00:20 50.13709 8.96671 4722 ft 184 kts 248°
2026-05-04 00:20 50.13233 8.94835 4330 ft 180 kts 248°
2026-05-04 00:20 50.12767 8.93032 4145 ft 179 kts 248°
2026-05-04 00:21 50.12299 8.91233 4068 ft 179 kts 248°
2026-05-04 00:21 50.11829 8.89425 3937 ft 182 kts 248°
2026-05-04 00:21 50.11353 8.87597 3535 ft 181 kts 248°
2026-05-04 00:21 50.10889 8.85814 3235 ft 178 kts 248°
2026-05-04 00:22 50.10437 8.84015 3057 ft 179 kts 250°
2026-05-04 00:22 50.10001 8.82198 2870 ft 179 kts 250°
2026-05-04 00:22 50.09570 8.80378 2685 ft 179 kts 250°
2026-05-04 00:22 50.09147 8.78554 2495 ft 179 kts 250°
2026-05-04 00:23 50.08734 8.76722 2281 ft 179 kts 250°
2026-05-04 00:23 50.08322 8.74897 2060 ft 179 kts 250°
2026-05-04 00:23 50.07909 8.73080 1847 ft 177 kts 249°
2026-05-04 00:23 50.07485 8.71264 1711 ft 179 kts 248°
2026-05-04 00:24 50.07044 8.69446 1614 ft 179 kts 248°
2026-05-04 00:24 50.06601 8.67639 1517 ft 180 kts 248°
2026-05-04 00:24 50.06150 8.65799 1369 ft 182 kts 248°
2026-05-04 00:24 50.05762 8.64163 1169 ft 145 kts 249°
2026-05-04 00:25 50.05423 8.62718 898 ft 143 kts 249°
2026-05-04 00:25 50.05109 8.61282 679 ft 139 kts 251°
2026-05-04 00:25 50.04794 8.59858 535 ft 142 kts 249°
2026-05-04 00:25 50.04460 8.58473 390 ft 124 kts 248°
2026-05-04 00:26 50.04230 8.57549 364 ft 50 kts 248°
2026-05-04 00:26 50.04180 8.57322 368 ft 20 kts 253°
2026-05-04 00:26 50.04172 8.57149 368 ft 13 kts 276°
2026-05-04 00:26 50.04182 8.57030 367 ft 10 kts 279°
2026-05-04 00:27 50.04193 8.56939 365 ft 8 kts 283°
2026-05-04 00:27 50.04216 8.56861 366 ft 8 kts 304°
2026-05-04 00:27 50.04258 8.56810 364 ft 8 kts 340°
2026-05-04 00:27 50.04309 8.56811 363 ft 7 kts
2026-05-04 00:28 50.04357 8.56823 363 ft 7 kts 11°
2026-05-04 00:28 50.04410 8.56840 361 ft 8 kts 12°
2026-05-04 00:28 50.04470 8.56861 362 ft 9 kts 13°
2026-05-04 00:28 50.04533 8.56885 360 ft 9 kts 14°
2026-05-04 00:29 50.04591 8.56909 361 ft 8 kts 14°
2026-05-04 00:29 50.04638 8.56926 348 ft 7 kts 13°
2026-05-04 00:29 50.04675 8.56954 365 ft 6 kts 25°
2026-05-04 00:29 50.04714 8.56982 362 ft 7 kts 25°
2026-05-04 00:30 50.04761 8.57014 360 ft 8 kts 22°
2026-05-04 00:30 50.04796 8.57031 363 ft 7 kts 13°
2026-05-04 00:30 50.04839 8.56996 361 ft 6 kts 294°
2026-05-04 00:30 50.04853 8.56943 364 ft 2 kts 294°
2026-05-04 00:31 50.04854 8.56941 364 ft 0 kts 295°